Location: Boiro
(42.6475°N, 8.8834°W)
Time: 23:23:39
(UTC+01:00)

Transit 2A - Pass Details

Date: 05 December 2021
Orbit: 591 x 967 km, 66.7° (Epoch: 18 January)

Event Time Altitude Azimuth Distance (km) Brightness Sun altitude
Rises 00:42:46 0° 189° (S) 3,242 - -67.8°
Reaches altitude 10° 00:45:09 10° 183° (S) 2,376 - -68.0°
Maximum altitude 00:50:22 45° 112° (ESE) 1,157 - -68.4°
Drops below altitude 10° 00:56:07 10° 42° (NE) 2,614 - -68.8°
Sets 00:58:50 0° 36° (NE) 3,600 - -68.9°
